• In Russia
  • List of Countries
  • For 7 days
  • Water Temperature
  • Satellite Maps
  • Weather Map
  • Weather Widgets
  • user-avatar
    Login

    Hourly Weather Kipungo

    Today, 18 June, Monday

    Time Temperature Precipitation Wind Pressure Humidity
    00:00 +13°C° 0 mm 0 mps 655 mmHg 32%
    01:00 +12°C° 0 mm 0 mps 654 mmHg 34%
    02:00 +11°C° 0 mm 0 mps 654 mmHg 35%
    03:00 +11°C° 0 mm 0 mps 654 mmHg 37%
    04:00 +10°C° 0 mm 0 mps 654 mmHg 38%
    05:00 +10°C° 0 mm 0 mps 654 mmHg 39%
    06:00 +10°C° 0 mm 0 mps 654 mmHg 39%
    07:00 +11°C° 0 mm 1 mps 654 mmHg 40%
    08:00 +15°C° 0 mm 1 mps 655 mmHg 33%
    09:00 +20°C° 0 mm 2 mps 656 mmHg 26%
    10:00 +25°C° 0 mm 2 mps 657 mmHg 20%
    11:00 +27°C° 0 mm 2 mps 657 mmHg 17%
    12:00 +28°C° 0 mm 2 mps 657 mmHg 15%
    13:00 +30°C° 0 mm 2 mps 657 mmHg 12%
    14:00 +30°C° 0 mm 1 mps 656 mmHg 12%
    15:00 +30°C° 0 mm 1 mps 656 mmHg 12%
    16:00 +30°C° 0 mm 1 mps 655 mmHg 12%
    17:00 +26°C° 0 mm 1 mps 655 mmHg 15%
    18:00 +23°C° 0 mm 1 mps 655 mmHg 18%
    19:00 +20°C° 0 mm 1 mps 654 mmHg 21%
    20:00 +19°C° 0 mm 1 mps 654 mmHg 23%
    21:00 +18°C° 0 mm 1 mps 654 mmHg 24%
    22:00 +16°C° 0 mm 1 mps 655 mmHg 25%
    23:00 +15°C° 0 mm 1 mps 654 mmHg 27%

    Tomorrow, 19 June, Tuesday

    Time Temperature Precipitation Wind Pressure Humidity
    00:00 +15°C° 0 mm 1 mps 654 mmHg 29%
    01:00 +14°C° 0 mm 1 mps 654 mmHg 32%
    02:00 +13°C° 0 mm 1 mps 654 mmHg 33%
    03:00 +13°C° 0 mm 1 mps 653 mmHg 34%
    04:00 +12°C° 0 mm 1 mps 653 mmHg 35%
    05:00 +12°C° 0 mm 1 mps 653 mmHg 36%
    06:00 +11°C° 0 mm 0 mps 653 mmHg 37%
    07:00 +11°C° 0 mm 0 mps 654 mmHg 38%
    08:00 +16°C° 0 mm 1 mps 655 mmHg 31%
    09:00 +22°C° 0 mm 1 mps 656 mmHg 24%
    10:00 +26°C° 0 mm 1 mps 657 mmHg 18%
    11:00 +28°C° 0 mm 1 mps 657 mmHg 16%
    12:00 +29°C° 0 mm 2 mps 657 mmHg 14%
    13:00 +31°C° 0 mm 2 mps 656 mmHg 13%
    14:00 +31°C° 0 mm 2 mps 656 mmHg 13%
    15:00 +30°C° 0 mm 1 mps 655 mmHg 13%
    16:00 +30°C° 0 mm 1 mps 655 mmHg 13%
    17:00 +27°C° 0 mm 1 mps 654 mmHg 16%
    18:00 +23°C° 0 mm 1 mps 654 mmHg 19%
    19:00 +20°C° 0 mm 1 mps 653 mmHg 23%
    20:00 +20°C° 0 mm 1 mps 654 mmHg 24%
    21:00 +19°C° 0 mm 1 mps 654 mmHg 25%
    22:00 +18°C° 0 mm 1 mps 654 mmHg 26%
    23:00 +16°C° 0 mm 1 mps 654 mmHg 28%

    Day after tomorrow, 20 June, Wednesday

    Time Temperature Precipitation Wind Pressure Humidity
    00:00 +15°C° 0 mm 1 mps 654 mmHg 29%
    01:00 +14°C° 0 mm 1 mps 654 mmHg 31%
    02:00 +14°C° 0 mm 1 mps 653 mmHg 32%
    03:00 +13°C° 0 mm 1 mps 653 mmHg 34%
    04:00 +13°C° 0 mm 1 mps 653 mmHg 35%
    05:00 +13°C° 0 mm 1 mps 653 mmHg 36%
    06:00 +12°C° 0 mm 0 mps 654 mmHg 37%
    07:00 +12°C° 0 mm 0 mps 654 mmHg 38%
    08:00 +18°C° 0 mm 1 mps 655 mmHg 32%
    09:00 +21°C° 0 mm 2 mps 656 mmHg 26%
    10:00 +26°C° 0 mm 2 mps 657 mmHg 20%
    11:00 +27°C° 0 mm 2 mps 657 mmHg 18%
    12:00 +29°C° 0 mm 2 mps 657 mmHg 16%
    13:00 +31°C° 0 mm 2 mps 657 mmHg 15%
    14:00 +31°C° 0 mm 2 mps 656 mmHg 15%
    15:00 +30°C° 0 mm 2 mps 656 mmHg 14%
    16:00 +30°C° 0 mm 1 mps 655 mmHg 14%
    17:00 +27°C° 0 mm 1 mps 655 mmHg 18%
    18:00 +24°C° 0 mm 1 mps 655 mmHg 21%
    19:00 +21°C° 0 mm 1 mps 654 mmHg 25%
    20:00 +20°C° 0 mm 1 mps 655 mmHg 27%
    21:00 +20°C° 0 mm 1 mps 655 mmHg 28%
    22:00 +19°C° 0 mm 1 mps 656 mmHg 30%
    23:00 +18°C° 0 mm 1 mps 655 mmHg 31%

    21 June, Thursday

    Time Temperature Precipitation Wind Pressure Humidity
    00:00 +16°C° 0 mm 1 mps 655 mmHg 33%
    01:00 +15°C° 0 mm 1 mps 655 mmHg 35%
    02:00 +15°C° 0 mm 1 mps 654 mmHg 37%
    03:00 +14°C° 0 mm 1 mps 654 mmHg 38%
    04:00 +13°C° 0 mm 1 mps 654 mmHg 40%
    05:00 +13°C° 0 mm 1 mps 654 mmHg 41%
    06:00 +13°C° 0 mm 1 mps 655 mmHg 41%
    07:00 +13°C° 0 mm 1 mps 655 mmHg 42%
    08:00 +17°C° 0 mm 2 mps 656 mmHg 36%
    09:00 +21°C° 0 mm 2 mps 657 mmHg 29%
    10:00 +26°C° 0 mm 3 mps 658 mmHg 23%
    11:00 +28°C° 0 mm 3 mps 658 mmHg 20%
    12:00 +29°C° 0 mm 3 mps 657 mmHg 18%
    13:00 +31°C° 0 mm 3 mps 657 mmHg 16%
    14:00 +31°C° 0 mm 2 mps 657 mmHg 16%
    15:00 +31°C° 0 mm 2 mps 656 mmHg 15%
    16:00 +30°C° 0 mm 2 mps 656 mmHg 15%
    17:00 +27°C° 0 mm 2 mps 656 mmHg 19%
    18:00 +24°C° 0 mm 1 mps 655 mmHg 23%
    19:00 +21°C° 0 mm 1 mps 655 mmHg 28%
    20:00 +20°C° 0 mm 1 mps 655 mmHg 29%
    21:00 +19°C° 0 mm 1 mps 656 mmHg 30%
    22:00 +19°C° 0 mm 1 mps 656 mmHg 32%
    23:00 +18°C° 0 mm 1 mps 656 mmHg 33%

    22 June, Friday

    Time Temperature Precipitation Wind Pressure Humidity
    00:00 +16°C° 0 mm 1 mps 655 mmHg 34%
    01:00 +15°C° 0 mm 1 mps 655 mmHg 35%
    02:00 +15°C° 0 mm 1 mps 655 mmHg 37%
    03:00 +14°C° 0 mm 1 mps 654 mmHg 38%
    04:00 +13°C° 0 mm 1 mps 654 mmHg 40%
    05:00 +13°C° 0 mm 1 mps 654 mmHg 40%
    06:00 +13°C° 0 mm 1 mps 655 mmHg 41%
    07:00 +13°C° 0 mm 1 mps 655 mmHg 41%
    08:00 +17°C° 0 mm 2 mps 656 mmHg 35%
    09:00 +21°C° 0 mm 3 mps 657 mmHg 30%
    10:00 +26°C° 0 mm 3 mps 658 mmHg 25%
    11:00 +28°C° 0 mm 3 mps 658 mmHg 22%
    12:00 +29°C° 0 mm 3 mps 657 mmHg 20%
    13:00 +31°C° 0 mm 3 mps 657 mmHg 18%
    14:00 +31°C° 0 mm 2 mps 656 mmHg 18%
    15:00 +31°C° 0 mm 2 mps 656 mmHg 18%
    16:00 +31°C° 0 mm 1 mps 656 mmHg 17%
    17:00 +28°C° 0 mm 1 mps 655 mmHg 22%
    18:00 +25°C° 0 mm 1 mps 655 mmHg 26%
    19:00 +22°C° 0 mm 1 mps 655 mmHg 31%
    20:00 +21°C° 0 mm 1 mps 655 mmHg 33%
    21:00 +20°C° 0 mm 1 mps 656 mmHg 34%
    22:00 +19°C° 0 mm 1 mps 656 mmHg 36%
    23:00 +18°C° 0 mm 1 mps 655 mmHg 38%

    23 June, Saturday

    Time Temperature Precipitation Wind Pressure Humidity
    00:00 +16°C° 0 mm 1 mps 655 mmHg 39%
    01:00 +16°C° 0 mm 1 mps 655 mmHg 40%
    02:00 +15°C° 0 mm 1 mps 654 mmHg 42%
    03:00 +14°C° 0 mm 1 mps 654 mmHg 44%
    04:00 +14°C° 0 mm 1 mps 654 mmHg 45%
    05:00 +14°C° 0 mm 1 mps 654 mmHg 46%
    06:00 +14°C° 0 mm 1 mps 655 mmHg 48%
    07:00 +14°C° 0 mm 1 mps 655 mmHg 49%
    08:00 +19°C° 0 mm 1 mps 656 mmHg 42%
    09:00 +21°C° 0 mm 2 mps 657 mmHg 36%
    10:00 +26°C° 0 mm 3 mps 658 mmHg 30%
    11:00 +28°C° 0 mm 3 mps 657 mmHg 26%
    12:00 +29°C° 0 mm 3 mps 657 mmHg 23%
    13:00 +31°C° 0 mm 2 mps 656 mmHg 20%
    14:00 +31°C° 0 mm 2 mps 656 mmHg 20%
    15:00 +31°C° 0 mm 2 mps 656 mmHg 19%
    16:00 +30°C° 0 mm 1 mps 655 mmHg 19%
    17:00 +28°C° 0 mm 1 mps 655 mmHg 23%
    18:00 +25°C° 0 mm 1 mps 655 mmHg 28%
    19:00 +22°C° 0 mm 1 mps 654 mmHg 32%
    20:00 +21°C° 0 mm 1 mps 654 mmHg 33%
    21:00 +20°C° 0 mm 1 mps 655 mmHg 35%
    22:00 +20°C° 0 mm 1 mps 655 mmHg 36%
    23:00 +19°C° 0 mm 1 mps 654 mmHg 38%
    Show more